Location: Champaign/Urbana Astronomical Society Observatory
(40.0333°N, 88.2833°W)
Time: 18:03:51
(UTC-05:00)

AIST 2D - Pass Details

Date: 26 May 2019
Orbit: 456 x 473 km, 97.2° (Epoch: 18 June)

Event Time Altitude Azimuth Distance (km) Brightness Sun altitude
Rises 00:30:10 0° 357° (N) 2,503 ? -28.7°
Reaches altitude 10° 00:32:30 10° 342° (NNW) 1,619 ? -28.7°
Enters shadow 00:34:00 18° 321° (NW) 1,185 ? -28.8°
